When you browse on this site, cookies collect data to enhance your experience and personalize the content and advertising you see.
Visit our Privacy Policy to learn more. By continuing to use the site, you agree to this use of cookies and data.
  • In United Kingdom
  • List of Countries
  • For 7 days
  • Water Temperature
  • Satellite Maps
  • Weather Map
  • Weather Widgets
  • user-avatar
    Login

    Hourly Weather Bystrzyca Kłodzka

    Today, 20 June, Thursday

    Time Temperature Precipitation Wind Pressure Humidity
    00:00 +18°C° 0 mm 2 mps 726 mmHg 85%
    01:00 +18°C° 0 mm 2 mps 726 mmHg 87%
    02:00 +18°C° 0 mm 2 mps 726 mmHg 88%
    03:00 +17°C° 0 mm 2 mps 726 mmHg 90%
    04:00 +17°C° 0 mm 2 mps 726 mmHg 91%
    05:00 +19°C° 0 mm 2 mps 726 mmHg 88%
    06:00 +20°C° 0 mm 2 mps 726 mmHg 84%
    07:00 +23°C° 0 mm 2 mps 727 mmHg 81%
    08:00 +24°C° 0.1 mm 2 mps 727 mmHg 74%
    09:00 +26°C° 0.1 mm 2 mps 727 mmHg 68%
    10:00 +27°C° 0.1 mm 2 mps 727 mmHg 61%
    11:00 +28°C° 0.3 mm 2 mps 727 mmHg 57%
    12:00 +29°C° 0.3 mm 2 mps 727 mmHg 53%
    13:00 +29°C° 0.3 mm 2 mps 727 mmHg 49%
    14:00 +29°C° 0.1 mm 2 mps 727 mmHg 53%
    15:00 +28°C° 0.1 mm 2 mps 726 mmHg 57%
    16:00 +28°C° 0.1 mm 2 mps 726 mmHg 61%
    17:00 +26°C° 0.9 mm 2 mps 726 mmHg 69%
    18:00 +24°C° 0.9 mm 1 mps 727 mmHg 76%
    19:00 +23°C° 0.9 mm 1 mps 727 mmHg 84%
    20:00 +22°C° 0.4 mm 1 mps 727 mmHg 84%
    21:00 +19°C° 0.4 mm 0 mps 727 mmHg 84%
    22:00 +18°C° 0.4 mm 0 mps 728 mmHg 84%
    23:00 +20°C° 0.5 mm 1 mps 728 mmHg 87%

    Tomorrow, 21 June, Friday

    Time Temperature Precipitation Wind Pressure Humidity
    00:00 +19°C° 0.5 mm 1 mps 728 mmHg 89%
    01:00 +19°C° 0.5 mm 1 mps 728 mmHg 91%
    02:00 +19°C° 0.5 mm 1 mps 728 mmHg 93%
    03:00 +17°C° 0.5 mm 0 mps 729 mmHg 94%
    04:00 +17°C° 0.5 mm 0 mps 729 mmHg 95%
    05:00 +19°C° 0.3 mm 1 mps 729 mmHg 94%
    06:00 +20°C° 0.3 mm 1 mps 729 mmHg 93%
    07:00 +20°C° 0.3 mm 1 mps 730 mmHg 91%
    08:00 +20°C° 0.4 mm 1 mps 730 mmHg 92%
    09:00 +20°C° 0.4 mm 1 mps 730 mmHg 92%
    10:00 +20°C° 0.4 mm 1 mps 730 mmHg 92%
    11:00 +20°C° 0.1 mm 1 mps 730 mmHg 91%
    12:00 +20°C° 0.1 mm 1 mps 730 mmHg 89%
    13:00 +20°C° 0.1 mm 1 mps 730 mmHg 88%
    14:00 +22°C° 0.1 mm 1 mps 730 mmHg 81%
    15:00 +23°C° 0.1 mm 1 mps 730 mmHg 74%
    16:00 +25°C° 0.1 mm 1 mps 730 mmHg 67%
    17:00 +24°C° 0.5 mm 2 mps 730 mmHg 75%
    18:00 +23°C° 0.5 mm 2 mps 730 mmHg 82%
    19:00 +20°C° 0.5 mm 2 mps 730 mmHg 90%
    20:00 +19°C° 0.3 mm 2 mps 730 mmHg 92%
    21:00 +18°C° 0.3 mm 2 mps 731 mmHg 93%
    22:00 +17°C° 0.3 mm 2 mps 731 mmHg 95%
    23:00 +17°C° 0 mm 2 mps 731 mmHg 95%

    Day after tomorrow, 22 June, Saturday

    Time Temperature Precipitation Wind Pressure Humidity
    00:00 +16°C° 0 mm 2 mps 732 mmHg 95%
    01:00 +16°C° 0 mm 2 mps 732 mmHg 96%
    02:00 +16°C° 0 mm 2 mps 732 mmHg 97%
    03:00 +16°C° 0 mm 2 mps 732 mmHg 97%
    04:00 +16°C° 0 mm 2 mps 732 mmHg 98%
    05:00 +16°C° 0 mm 3 mps 732 mmHg 96%
    06:00 +17°C° 0 mm 3 mps 733 mmHg 95%
    07:00 +17°C° 0 mm 4 mps 733 mmHg 94%
    08:00 +17°C° 0 mm 4 mps 733 mmHg 92%
    09:00 +18°C° 0 mm 4 mps 733 mmHg 91%
    10:00 +18°C° 0 mm 4 mps 733 mmHg 90%
    11:00 +19°C° 0.1 mm 4 mps 733 mmHg 87%
    12:00 +20°C° 0.1 mm 4 mps 733 mmHg 83%
    13:00 +21°C° 0.1 mm 5 mps 732 mmHg 80%
    14:00 +21°C° 0.1 mm 5 mps 732 mmHg 78%
    15:00 +21°C° 0.1 mm 5 mps 732 mmHg 77%
    16:00 +21°C° 0.1 mm 6 mps 731 mmHg 75%
    17:00 +20°C° 0.1 mm 5 mps 731 mmHg 77%
    18:00 +20°C° 0.1 mm 5 mps 732 mmHg 79%
    19:00 +19°C° 0.1 mm 5 mps 732 mmHg 82%
    20:00 +19°C° 0.1 mm 5 mps 732 mmHg 83%
    21:00 +17°C° 0.1 mm 5 mps 732 mmHg 85%
    22:00 +18°C° 0.1 mm 4 mps 732 mmHg 86%
    23:00 +17°C° 0.1 mm 4 mps 732 mmHg 88%

    23 June, Sunday

    Time Temperature Precipitation Wind Pressure Humidity
    00:00 +17°C° 0.1 mm 4 mps 732 mmHg 89%
    01:00 +17°C° 0.1 mm 4 mps 732 mmHg 90%
    02:00 +15°C° 0.3 mm 4 mps 732 mmHg 92%
    03:00 +15°C° 0.3 mm 4 mps 732 mmHg 94%
    04:00 +14°C° 0.3 mm 3 mps 732 mmHg 96%
    05:00 +14°C° 0.2 mm 3 mps 732 mmHg 96%
    06:00 +14°C° 0.2 mm 3 mps 732 mmHg 95%
    07:00 +14°C° 0.2 mm 3 mps 733 mmHg 95%
    08:00 +14°C° 0 mm 3 mps 733 mmHg 92%
    09:00 +16°C° 0 mm 3 mps 733 mmHg 89%
    10:00 +17°C° 0 mm 3 mps 733 mmHg 86%
    11:00 +18°C° 0 mm 4 mps 733 mmHg 80%
    12:00 +19°C° 0 mm 4 mps 734 mmHg 75%
    13:00 +20°C° 0 mm 5 mps 734 mmHg 70%
    14:00 +21°C° 0 mm 5 mps 734 mmHg 71%
    15:00 +21°C° 0 mm 5 mps 733 mmHg 72%
    16:00 +21°C° 0 mm 5 mps 733 mmHg 73%
    17:00 +20°C° 0 mm 5 mps 734 mmHg 76%
    18:00 +20°C° 0 mm 5 mps 734 mmHg 79%
    19:00 +19°C° 0 mm 4 mps 734 mmHg 81%
    20:00 +18°C° 0 mm 4 mps 734 mmHg 85%
    21:00 +17°C° 0 mm 3 mps 734 mmHg 88%
    22:00 +16°C° 0 mm 3 mps 735 mmHg 91%
    23:00 +15°C° 0 mm 2 mps 735 mmHg 92%

    24 June, Monday

    Time Temperature Precipitation Wind Pressure Humidity
    00:00 +14°C° 0 mm 2 mps 735 mmHg 93%
    01:00 +13°C° 0 mm 1 mps 735 mmHg 94%
    02:00 +13°C° 0 mm 1 mps 735 mmHg 95%
    03:00 +13°C° 0 mm 1 mps 735 mmHg 95%
    04:00 +13°C° 0 mm 1 mps 735 mmHg 96%
    05:00 +14°C° 0 mm 2 mps 735 mmHg 93%
    06:00 +16°C° 0 mm 2 mps 735 mmHg 90%
    07:00 +18°C° 0 mm 2 mps 736 mmHg 86%
    08:00 +19°C° 0 mm 2 mps 736 mmHg 81%
    09:00 +20°C° 0 mm 3 mps 736 mmHg 76%
    10:00 +22°C° 0 mm 3 mps 736 mmHg 71%
    11:00 +22°C° 0 mm 3 mps 736 mmHg 70%
    12:00 +24°C° 0 mm 3 mps 736 mmHg 69%
    13:00 +25°C° 0 mm 4 mps 736 mmHg 67%
    14:00 +25°C° 0 mm 4 mps 736 mmHg 67%
    15:00 +25°C° 0 mm 4 mps 736 mmHg 67%
    16:00 +25°C° 0 mm 4 mps 736 mmHg 66%
    17:00 +24°C° 0 mm 3 mps 736 mmHg 71%
    18:00 +22°C° 0 mm 3 mps 736 mmHg 76%
    19:00 +21°C° 0 mm 3 mps 736 mmHg 80%
    20:00 +20°C° 0 mm 3 mps 736 mmHg 84%
    21:00 +18°C° 0 mm 2 mps 736 mmHg 88%
    22:00 +17°C° 0 mm 2 mps 736 mmHg 92%
    23:00 +17°C° 0 mm 2 mps 736 mmHg 93%

    25 June, Tuesday

    Time Temperature Precipitation Wind Pressure Humidity
    00:00 +16°C° 0 mm 1 mps 736 mmHg 95%
    01:00 +16°C° 0 mm 1 mps 736 mmHg 96%
    02:00 +16°C° 0 mm 1 mps 736 mmHg 96%
    03:00 +16°C° 0 mm 1 mps 736 mmHg 97%
    04:00 +16°C° 0 mm 1 mps 736 mmHg 97%
    05:00 +18°C° 0 mm 1 mps 736 mmHg 95%
    06:00 +18°C° 0 mm 2 mps 736 mmHg 93%
    07:00 +19°C° 0 mm 2 mps 737 mmHg 90%
    08:00 +20°C° 0 mm 2 mps 737 mmHg 86%
    09:00 +21°C° 0 mm 2 mps 737 mmHg 81%
    10:00 +23°C° 0 mm 2 mps 737 mmHg 77%
    11:00 +25°C° 0 mm 2 mps 737 mmHg 73%
    12:00 +26°C° 0 mm 2 mps 736 mmHg 68%
    13:00 +27°C° 0 mm 2 mps 736 mmHg 64%
    14:00 +27°C° 0 mm 2 mps 736 mmHg 65%
    15:00 +27°C° 0 mm 2 mps 736 mmHg 65%
    16:00 +28°C° 0 mm 2 mps 736 mmHg 66%
    17:00 +27°C° 0 mm 2 mps 736 mmHg 72%
    18:00 +25°C° 0 mm 2 mps 735 mmHg 77%
    19:00 +24°C° 0 mm 2 mps 735 mmHg 83%
    20:00 +23°C° 0 mm 1 mps 736 mmHg 86%
    21:00 +21°C° 0 mm 1 mps 736 mmHg 89%
    22:00 +20°C° 0 mm 1 mps 736 mmHg 93%
    23:00 +20°C° 0 mm 1 mps 736 mmHg 93%
    Show more